Location: Cahas Mountain Overlook
(37.0833°N, 80.1000°W)
Time: 17:39:42
(UTC-04:00)

NANOSAT C BR1 - Visible Passes

Search period start: 31 March 2023 00:00
Search period end: 10 April 2023 00:00
Orbit: 575 x 590 km, 98.0° (Epoch: 31 March)

Date Brightness Start Highest point End Pass type
(mag) Time Alt. Az. Time Alt. Az. Time Alt. Az.
31 Mar ? 03:48:06 10° NNE 03:48:14 11° NNE 03:48:14 11° NNE visible
01 Apr ? 03:53:53 10° NNE 03:54:15 12° NNE 03:54:15 12° NNE visible
02 Apr ? 03:59:40 10° NNE 04:00:14 14° NNE 04:00:14 14° NNE visible
03 Apr ? 04:05:27 10° N 04:06:12 15° N 04:06:12 15° N visible
04 Apr ? 04:11:13 10° N 04:12:08 16° N 04:12:08 16° N visible
05 Apr ? 04:16:58 10° N 04:18:04 18° N 04:18:04 18° N visible
06 Apr ? 04:22:43 10° N 04:23:57 19° N 04:23:57 19° N visible
07 Apr ? 04:28:28 10° N 04:29:49 19° N 04:29:49 19° N visible
08 Apr ? 04:34:13 10° N 04:35:39 20° NNW 04:35:39 20° NNW visible
09 Apr ? 04:39:57 10° N 04:41:28 20° NNW 04:41:28 20° NNW visible
